[[{"header":{"parameterUnit":"m.s-1","parameterCategory":1,"la1":30.2992,"la2":30.254,"lo1":-89.0895,"lo2":-89.0443,"dy":0.0025,"dx":0.0025,"nx":19,"ny":19,"refTime":"2026-05-09T21:00:00:Z","depth":0,"parameterNumber":2,"parameterNumberName":"U-component_of_WINDS"},"data":[0,0,0,-3.6849,-3.6849,-3.685,-3.685,-3.6889,-3.6889,0,0,0,0,0,0,0,0,0,0,0,-3.687,-3.6871,-3.6849,-3.6849,-3.685,-3.685,-3.6889,-3.6889,0,0,0,0,0,0,0,0,0,0,0,-3.687,-3.6871,-3.6872,-3.6849,-3.685,-3.685,-3.6888,-3.6875,0,0,0,0,0,0,0,0,0,0,-3.6868,-3.6909,-3.6871,-3.6872,-3.685,-3.685,-3.685,-3.6873,-3.6876,-3.6904,0,-3.6935,0,-3.6913,-3.6894,-3.6895,0,0,0,-3.6833,-3.6907,-3.6887,-3.6873,-3.685,-3.685,-3.6845,-3.6874,-3.6877,-3.6908,-3.6935,-3.6935,-3.6913,-3.6895,-3.6895,-3.7112,-3.7114,0,0,-3.6833,-3.6883,-3.6886,-3.689,-3.6891,-3.6845,-3.6845,-3.6875,-3.6909,-3.6935,-3.6935,-3.6914,-3.6895,-3.6896,-3.7111,-3.7113,0,0,0,-3.6844,-3.6883,-3.6862,-3.6889,-3.6887,-3.6846,-3.6846,-3.6907,-3.6896,-3.6936,-3.6915,-3.6896,-3.6897,-3.7109,-3.7111,-3.7247,0,0,0,-3.6843,-3.6889,-3.6863,-3.6893,-3.6887,-3.6897,-3.6878,-3.6894,-3.6896,-3.6914,-3.6896,-3.6897,-3.7107,-3.711,-3.7239,-3.7303,0,0,0,-3.6863,-3.6891,-3.6899,-3.6896,-3.6897,-3.6895,-3.6885,-3.6893,-3.6884,-3.6895,-3.6898,-3.7105,-3.7109,-3.7231,-3.7291,-3.7376,0,0,0,-3.6898,-3.7019,-3.6902,-3.7028,-3.6898,-3.6978,-3.6884,-3.6942,-3.6967,-3.6896,-3.7107,-3.7111,-3.7229,-3.7284,-3.7368,-3.7457,-3.7497,0,0,-3.7078,-3.7042,-3.7112,-3.7008,-3.7121,-3.6974,-3.7108,-3.7084,-3.7041,-3.7092,-3.7096,-3.7241,-3.729,-3.7374,-3.7707,-3.774,0,0,0,-3.7186,-3.7238,-3.7257,-3.7283,-3.7268,-3.726,-3.7211,-3.7203,-3.7243,-3.7076,-3.7292,-3.732,-3.7367,-3.7407,-3.7435,-3.7473,-3.7131,-3.7131,-3.713,-3.7511,-3.7448,-3.7561,-3.7499,-3.7526,-3.7474,-3.7491,-3.7471,-3.74,-3.7452,-3.7467,-3.7677,-3.7726,-3.7746,-3.7787,-3.7507,-3.7508,-3.7508,-3.7509,-3.7769,-3.7833,-3.7736,-3.781,-3.7744,-3.7807,-3.7763,-3.7711,-3.7761,-3.766,-3.7699,-3.7596,-3.7784,-3.7817,-3.7518,-3.7517,-3.7515,-3.7515,-3.7514,-3.7976,-3.7996,-3.7983,-3.8015,-3.8047,-3.798,-3.8032,-3.797,-3.7911,-3.7949,-3.796,-3.7957,-3.7949,-3.7958,-3.7959,-3.796,-3.796,-3.7961,-3.7961,-3.8197,-3.8178,-3.8229,-3.8224,-3.8233,-3.8237,-3.8187,-3.8195,-3.8188,-3.8138,-3.8138,-3.8064,-3.7814,-3.7753,-3.7972,-3.797,-3.7969,-3.7968,-3.7967,-3.8485,-3.841,-3.8489,-3.8499,-3.8488,-3.8525,-3.8444,-3.8465,-3.8462,-3.8491,-3.8408,-3.8233,-3.8192,-3.8169,-3.8119,-3.842,-3.842,-3.842,-3.842,-3.8661,-3.8634,-3.8702,-3.8721,-3.8732,-3.8667,-3.8762,-3.8725,-3.8675,-3.867,-3.8617,-3.8545,-3.8524,-3.8496,-3.8466,-3.8418,-3.8788,-3.8789,-3.8789,-3.8836,-3.8807,-3.8898,-3.8847,-3.8834,-3.8825,-3.8913,-3.894,-3.8868,-3.8803,-3.8666,-3.865,-3.8532,-3.8496,-3.8429,-3.8384,-3.8295,0,0]},{"header":{"parameterUnit":"m.s-1","parameterCategory":1,"la1":30.2992,"la2":30.254,"lo1":-89.0895,"lo2":-89.0443,"dy":0.0025,"dx":0.0025,"nx":19,"ny":19,"refTime":"2026-05-09T21:00:00:Z","depth":0,"parameterNumber":3,"parameterNumberName":"V-component_of_WINDS"},"data":[0,0,0,-0.8318,-0.8317,-0.8279,-0.8279,-0.8239,-0.8238,0,0,0,0,0,0,0,0,0,0,0,-0.8335,-0.8335,-0.8318,-0.8317,-0.8279,-0.8279,-0.8239,-0.8238,0,0,0,0,0,0,0,0,0,0,0,-0.8335,-0.8335,-0.8335,-0.8317,-0.8279,-0.8279,-0.8239,-0.8264,0,0,0,0,0,0,0,0,0,0,-0.8299,-0.8322,-0.8335,-0.8335,-0.8317,-0.8279,-0.8279,-0.8265,-0.8263,-0.826,0,-0.826,0,-0.8249,-0.8236,-0.8236,0,0,0,-0.8312,-0.8325,-0.8309,-0.8335,-0.8316,-0.8279,-0.8295,-0.8264,-0.8261,-0.8256,-0.826,-0.8258,-0.8248,-0.8236,-0.8236,-0.8239,-0.824,0,0,-0.8314,-0.8332,-0.8311,-0.8307,-0.8315,-0.8296,-0.8294,-0.8262,-0.8266,-0.8259,-0.8257,-0.8247,-0.8236,-0.8236,-0.8239,-0.8239,0,0,0,-0.8323,-0.8333,-0.8318,-0.8309,-0.8302,-0.8295,-0.8292,-0.8267,-0.8261,-0.8256,-0.8247,-0.8236,-0.8235,-0.8239,-0.8239,-0.8269,0,0,0,-0.8324,-0.8339,-0.8319,-0.833,-0.8302,-0.8284,-0.8299,-0.8263,-0.8259,-0.8247,-0.8236,-0.8235,-0.8238,-0.8239,-0.8268,-0.8281,0,0,0,-0.8335,-0.834,-0.8337,-0.8331,-0.8315,-0.8284,-0.8276,-0.8262,-0.8254,-0.8236,-0.8235,-0.8238,-0.8239,-0.8267,-0.8279,-0.8287,0,0,0,-0.8352,-0.8364,-0.8338,-0.8347,-0.8315,-0.8303,-0.8276,-0.8266,-0.8254,-0.8236,-0.8238,-0.8239,-0.8266,-0.8277,-0.8286,-0.8299,-0.8305,0,0,-0.8377,-0.8368,-0.8371,-0.8347,-0.8344,-0.8308,-0.8309,-0.8281,-0.8263,-0.8248,-0.8248,-0.8268,-0.8279,-0.8287,-0.8335,-0.834,0,0,0,-0.8385,-0.8388,-0.8384,-0.8374,-0.8354,-0.8337,-0.8307,-0.8297,-0.8283,-0.8259,-0.8273,-0.8278,-0.8282,-0.8288,-0.8292,-0.8295,-0.8242,-0.8242,-0.8242,-0.8446,-0.8422,-0.8427,-0.8398,-0.8389,-0.8358,-0.8348,-0.8328,-0.8307,-0.831,-0.8306,-0.8338,-0.8345,-0.8348,-0.8351,-0.831,-0.831,-0.831,-0.831,-0.8481,-0.8481,-0.8452,-0.8446,-0.842,-0.8414,-0.8384,-0.8368,-0.8359,-0.8339,-0.8342,-0.8324,-0.8355,-0.8356,-0.8312,-0.8312,-0.8311,-0.8311,-0.8311,-0.8519,-0.8515,-0.8502,-0.8485,-0.8474,-0.8444,-0.8436,-0.8412,-0.8389,-0.8392,-0.8385,-0.8384,-0.8381,-0.839,-0.839,-0.839,-0.839,-0.839,-0.839,-0.8564,-0.8548,-0.8545,-0.8524,-0.8514,-0.8498,-0.8466,-0.8455,-0.8437,-0.842,-0.842,-0.8398,-0.8362,-0.8354,-0.8392,-0.8392,-0.8391,-0.8391,-0.8391,-0.861,-0.8595,-0.8591,-0.8581,-0.8553,-0.8544,-0.8513,-0.8493,-0.848,-0.8477,-0.8453,-0.8431,-0.8419,-0.8415,-0.8409,-0.8458,-0.8458,-0.8459,-0.8459,-0.8643,-0.8634,-0.8624,-0.861,-0.8593,-0.8564,-0.8558,-0.8533,-0.8504,-0.8494,-0.8483,-0.8471,-0.8468,-0.8459,-0.8454,-0.8448,-0.8506,-0.8506,-0.8506,-0.867,-0.8658,-0.8659,-0.8631,-0.8607,-0.8587,-0.858,-0.8564,-0.8528,-0.8507,-0.8486,-0.8484,-0.8465,-0.846,-0.8441,-0.8434,-0.8422,0,0]}]]